Find Perseus-M 2

NORAD ID: 40037 Int'l Des: 2014-033 Owner: CANOP Country: US operational
LEOCIRCULARRETROGRADESSO

Live Position

Loading 3D Globe...

About Perseus-M 2

Description loading...

Upcoming Passes

Passes for default location (London). Set your location on the main map for personalized predictions.

Altitude History

Loading altitude history...

Two-Line Element Set

1 40037U 14033AD 26107.30670542 .00000093 00000-0 13952-4 0 9994
2 40037 97.9917 56.6362 0012554 135.4866 224.7365 14.95315634641681
Epoch: Apr 17, 2026 • Age: 11 hours

Current Status

Altitude 587.3 km
Velocity 7.57 km/s
Sub-Earth Point 29.44°N, 74.34°W
Launch Date Jun 19, 2014
Age 11.8 years
Type other

Technical Details

Classification Payload
Mass 10.00 kg
Dry Mass 10.00 kg
Total Mass 10.00 kg
Length 0.30 m
Diameter 0.20 m
Span 0.30 m
Shape Box
Manufacturer CANOP
Bus Type Cubesat 6U
Phase Status In Orbit
Owner/State CANOP/US

Most Searched